Weather History for Port Angeles, WA

Change the Weather History Date:

Thursday, June 27, 2013

  Actual Average Record
Temperature  
Mean Temperature 60 °F -  
Max Temperature 66 °F 66 °F 84 °F (2000)
Min Temperature 53 °F 50 °F 41 °F (1965)
Degree Days  
Heating Degree Days 6    
Growing Degree Days 10 (Base 50)    
Moisture  
Dew Point 56 °F    
Average Humidity 91    
Maximum Humidity 100    
Minimum Humidity 76    
Precipitation  
Precipitation 0.07 in - - ()
Sea Level Pressure  
Sea Level Pressure 30.11 in    
Wind  
Wind Speed 2 mph (WNW)    
Max Wind Speed 10 mph    
Max Gust Speed -    
Visibility 7 miles    
Events Fog , Rain    
Averages and records for this station are not official NWS values.
T = Trace of Precipitation, MM = Missing Value Source: NWS Daily Summary

Daily Weather History Graph

Daily Weather History Graph

Search for Another Location

Airport:

Trip Planner

Search our weather history database for the weather conditions in past years. The results will help you decide how hot, cold, wet, or windy it might be!

Date:

Astronomy

Jun. 27, 2013 Rise Set
Actual Time 5:16 AM PDT 9:18 PM PDT
Civil Twilight 4:34 AM PDT 9:59 PM PDT
Nautical Twilight 3:36 AM PDT 10:57 PM PDT
Astronomical Twilight 1:57 AM PDT 12:35 AM PDT
Moon 11:50 PM PDT (6/27) 10:48 AM PDT (6/27)
Length of Visible Light 17h 24m
Length of Day
16h 02m
Waning Gibbous, 75% of the Moon is Illuminated
Jun 27
Waning Gibbous
Jun 29
Last Quarter
Jul 8
New
Jul 15
First Quarter
Jul 22
Full

Hourly Weather History & Observations

Time (PDT) Temp. Dew Point Humidity Pressure Visibility Wind Dir Wind Speed Gust Speed Precip Events Conditions
12:53 AM 57.0 °F 55.0 °F 93% 30.07 in 10.0 mi Calm Calm - N/A   Overcast
1:53 AM 57.0 °F 55.0 °F 93% 30.06 in 10.0 mi ESE 3.5 mph - N/A   Mostly Cloudy
2:53 AM 57.9 °F 55.0 °F 90% 30.05 in 10.0 mi SSE 3.5 mph - N/A   Mostly Cloudy
3:53 AM 57.0 °F 54.0 °F 89% 30.04 in 10.0 mi Calm Calm - 0.01 in Rain Light Rain
4:53 AM 55.9 °F 54.0 °F 93% 30.04 in 9.0 mi Calm Calm - 0.01 in Rain Light Rain
5:18 AM 54.0 °F 53.1 °F 97% 30.04 in 2.0 mi Calm Calm - 0.01 in Rain Light Rain
5:24 AM 53.1 °F 52.0 °F 96% 30.05 in 0.8 mi Calm Calm - 0.01 in Rain Light Rain
5:51 AM 53.6 °F 51.8 °F 94% 30.05 in 2.0 mi Calm Calm - 0.03 in Rain Light Rain
5:52 AM 53.1 °F 52.0 °F 96% 30.05 in 2.5 mi Calm Calm - 0.03 in Rain Light Rain
6:03 AM 54.0 °F 52.0 °F 93% 30.05 in 3.0 mi Calm Calm - 0.00 in Rain Light Rain
6:15 AM 53.1 °F 52.0 °F 96% 30.05 in 1.8 mi Calm Calm - 0.00 in Rain Light Rain
6:32 AM 54.0 °F 53.1 °F 97% 30.04 in 2.5 mi East 3.5 mph - 0.01 in Rain Light Rain
6:44 AM 55.0 °F 53.1 °F 93% 30.04 in 4.0 mi Calm Calm - 0.01 in Rain Light Rain
6:53 AM 54.0 °F 53.1 °F 97% 30.05 in 4.0 mi Calm Calm - 0.01 in Rain Light Rain
7:01 AM 54.0 °F 53.1 °F 97% 30.04 in 1.8 mi Calm Calm - 0.01 in Rain Light Rain
7:21 AM 55.0 °F 54.0 °F 96% 30.04 in 0.8 mi Calm Calm - 0.01 in Rain Light Rain
7:45 AM 55.0 °F 54.0 °F 96% 30.05 in 0.2 mi Calm Calm - 0.01 in Fog Fog
7:53 AM 55.0 °F 54.0 °F 96% 30.05 in 0.2 mi Calm Calm - 0.01 in Fog Fog
8:53 AM 55.9 °F 55.9 °F 100% 30.06 in 0.2 mi Variable 3.5 mph - N/A Fog Fog
9:48 AM 55.4 °F 55.4 °F 100% 30.07 in 0.8 mi WNW 6.9 mph - N/A   Mist
9:53 AM 55.9 °F 55.0 °F 97% 30.08 in 1.5 mi WNW 5.8 mph - N/A   Overcast
9:55 AM 55.9 °F 55.0 °F 97% 30.07 in 3.0 mi WNW 5.8 mph - N/A   Overcast
10:07 AM 55.9 °F 55.0 °F 97% 30.08 in 2.5 mi WNW 5.8 mph - N/A   Overcast
10:14 AM 55.9 °F 55.0 °F 97% 30.07 in 5.0 mi WNW 3.5 mph - N/A   Overcast
10:53 AM 57.0 °F 55.9 °F 96% 30.09 in 5.0 mi WNW 5.8 mph - N/A   Overcast
11:53 AM 59.0 °F 57.0 °F 93% 30.09 in 10.0 mi NW 6.9 mph - N/A   Overcast
12:24 PM 61.0 °F 57.9 °F 90% 30.10 in 10.0 mi WNW 8.1 mph - N/A   Mostly Cloudy
12:34 PM 60.1 °F 57.0 °F 90% 30.11 in 10.0 mi WNW 9.2 mph - N/A   Mostly Cloudy
12:53 PM 61.0 °F 57.0 °F 87% 30.11 in 10.0 mi WNW 8.1 mph - N/A   Overcast
1:03 PM 62.1 °F 57.9 °F 86% 30.11 in 10.0 mi WNW 8.1 mph - N/A   Mostly Cloudy
1:53 PM 63.0 °F 57.9 °F 84% 30.13 in 10.0 mi WNW 10.4 mph - N/A   Mostly Cloudy
2:04 PM 63.0 °F 57.9 °F 84% 30.13 in 10.0 mi WNW 6.9 mph - N/A   Mostly Cloudy
2:53 PM 63.0 °F 57.9 °F 84% 30.15 in 10.0 mi Calm Calm - N/A   Overcast
3:17 PM 64.0 °F 57.9 °F 80% 30.15 in 10.0 mi Calm Calm - N/A   Overcast
3:53 PM 64.0 °F 59.0 °F 84% 30.17 in 10.0 mi Calm Calm - N/A   Overcast
4:33 PM 64.9 °F 57.9 °F 78% 30.17 in 10.0 mi Calm Calm - N/A   Overcast
4:53 PM 66.9 °F 59.0 °F 76% 30.18 in 10.0 mi Calm Calm - N/A   Overcast
5:53 PM 66.9 °F 59.0 °F 76% 30.19 in 10.0 mi NE 3.5 mph - N/A   Overcast
6:53 PM 61.0 °F 57.0 °F 87% 30.19 in 10.0 mi Calm Calm - N/A   Overcast
7:14 PM 62.1 °F 57.0 °F 84% 30.19 in 10.0 mi Calm Calm - N/A   Mostly Cloudy
7:53 PM 61.0 °F 57.0 °F 87% 30.19 in 10.0 mi North 4.6 mph - N/A   Clear
8:24 PM 61.0 °F 57.0 °F 87% 30.19 in 10.0 mi Calm Calm - N/A   Mostly Cloudy
8:53 PM 60.1 °F 57.0 °F 90% 30.19 in 10.0 mi West 3.5 mph - N/A   Overcast
9:53 PM 62.1 °F 59.0 °F 90% 30.21 in 10.0 mi Calm Calm - N/A   Overcast
10:30 PM 59.0 °F 57.0 °F 93% 30.21 in 10.0 mi Calm Calm - N/A   Scattered Clouds
10:53 PM 57.9 °F 55.9 °F 93% 30.22 in 7.0 mi WNW 3.5 mph - N/A   Scattered Clouds
11:53 PM 59.0 °F 57.0 °F 93% 30.22 in 10.0 mi Calm Calm - N/A   Overcast